Weather History for KIGM - August, 2012

Change the Weather History Date:

Friday, August 17, 2012

  Actual Average Record
Temperature  
Mean Temperature 79 °F 83 °F  
Max Temperature 89 °F 96 °F 106 °F (2001)
Min Temperature 68 °F 69 °F 52 °F (1954)
Degree Days  
Heating Degree Days 0 0  
Month to date heating degree days 0 0  
Since 1 June heating degree days 0 3  
Since 1 July heating degree days 0 0  
Cooling Degree Days 14 18  
Month to date cooling degree days 343 312  
Year to date cooling degree days 1602 1471  
Since 1 June cooling degree days 1346 1273  
Growing Degree Days 30 (Base 50)    
Moisture  
Dew Point 61 °F    
Average Humidity 59    
Maximum Humidity 78    
Minimum Humidity 40    
Precipitation  
Precipitation 0.00 in 0.02 in 1.30 in (1977)
Month to date precipitation 0.65 0.42  
Year to date precipitation 5.36 4.72  
Sea Level Pressure  
Sea Level Pressure 29.90 in    
Wind  
Wind Speed 7 mph (SW)    
Max Wind Speed 17 mph    
Max Gust Speed 21 mph    
Visibility 10 miles    
Events      
T = Trace of Precipitation, MM = Missing Value Source: NWS Daily Summary

Daily Weather History Graph

Daily Weather History Graph

Search for Another Location

Airport or City:

Trip Planner

Search our weather history database for the weather conditions in past years. The results will help you decide how hot, cold, wet, or windy it might be!

Date:

Astronomy

Aug. 17, 2012 Rise Set
Actual Time 5:57 AM MST 7:21 PM MST
Civil Twilight 5:30 AM MST 7:48 PM MST
Nautical Twilight 4:58 AM MST 8:20 PM MST
Astronomical Twilight 4:25 AM MST 8:53 PM MST
Moon 6:01 AM MST (8/17) 7:10 PM MST (8/17)
Length of Visible Light 14h 17m
Length of Day
13h 24m
New Moon, 0% of the Moon is Illuminated
Aug 17
New Moon
Aug 24
First Quarter
Aug 31
Full
Sep 8
Last Quarter
Sep 15
New

Hourly Weather History & Observations

Time (MST) Temp. Heat Index Dew Point Humidity Pressure Visibility Wind Dir Wind Speed Gust Speed Precip Events Conditions
12:51 AM 73.9 °F - 59.0 °F 59% 29.86 in 10.0 mi SSW 10.4 mph - N/A   Clear
1:51 AM 70.0 °F - 63.0 °F 78% 29.87 in 10.0 mi SSW 5.8 mph - N/A   Clear
2:51 AM 71.1 °F - 61.0 °F 70% 29.87 in 10.0 mi SSE 6.9 mph - N/A   Partly Cloudy
3:51 AM 71.6 °F - 59.0 °F 64% 30.10 in 10.0 mi South 9.2 mph - N/A   Clear
4:51 AM 73.4 °F - 59.0 °F 61% 30.11 in 10.0 mi SSW 10.4 mph - N/A   Partly Cloudy
5:51 AM 73.0 °F - 57.9 °F 59% 29.90 in 10.0 mi South 5.8 mph - N/A   Partly Cloudy
6:51 AM 72.0 °F - 62.1 °F 71% 29.93 in 10.0 mi SW 3.5 mph - N/A   Clear
7:51 AM 73.9 °F - 62.1 °F 66% 29.94 in 10.0 mi SSW 6.9 mph - N/A   Clear
8:51 AM 75.9 °F - 62.1 °F 62% 29.94 in 10.0 mi SE 6.9 mph - N/A   Clear
9:51 AM 78.1 °F - 59.0 °F 52% 29.94 in 10.0 mi SSE 3.5 mph - N/A   Clear
10:51 AM 79.0 °F - 59.0 °F 50% 29.94 in 10.0 mi SW 3.5 mph - N/A   Clear
11:51 AM 80.1 °F 81.1 °F 61.0 °F 52% 29.94 in 10.0 mi Variable 3.5 mph - N/A   Clear
12:51 PM 82.0 °F 82.7 °F 61.0 °F 49% 29.90 in 10.0 mi West 5.8 mph - N/A   Clear
1:51 PM 84.9 °F 85.4 °F 62.1 °F 46% 29.88 in 10.0 mi WNW 3.5 mph - N/A   Clear
2:51 PM 86.0 °F 86.1 °F 61.0 °F 43% 29.86 in 10.0 mi SSW 8.1 mph - N/A   Clear
3:51 PM 86.0 °F 86.3 °F 62.1 °F 44% 29.83 in 10.0 mi West 6.9 mph - N/A   Clear
4:51 PM 89.1 °F 89.3 °F 62.1 °F 40% 29.81 in 10.0 mi WSW 6.9 mph - N/A   Clear
5:51 PM 87.8 °F 87.6 °F 60.8 °F 40% 30.02 in 10.0 mi WSW 11.5 mph - N/A   Clear
6:51 PM 86.0 °F 86.1 °F 61.0 °F 43% 29.81 in 10.0 mi SW 9.2 mph - N/A   Clear
7:51 PM 84.0 °F 84.5 °F 62.1 °F 47% 29.82 in 10.0 mi SW 10.4 mph - N/A   Clear
8:51 PM 81.0 °F 82.2 °F 63.0 °F 54% 29.85 in 10.0 mi SW 12.7 mph - N/A   Clear
9:51 PM 80.1 °F 81.7 °F 64.0 °F 58% 29.86 in 10.0 mi SW 8.1 mph - N/A   Clear
10:51 PM 78.1 °F - 64.9 °F 64% 29.87 in 10.0 mi SSW 8.1 mph - N/A   Clear
11:51 PM 77.0 °F - 64.9 °F 66% 29.87 in 10.0 mi SW 6.9 mph - N/A   Mostly Cloudy